Hourly Weather Roundup
Issued by NWS Central Illinois

Home | Current Version | Previous Version | Text Only | Print | Product List | Glossary On
Versions: 1 2 3 4 5 6 7 8 9 10 11 12 13 14 15 16 17 18 19 20 21 22 23 24 25 26 27 28 29 30 31 32 33 34 35 36 37 38 39 40 41 42 43 44 45 46 47 48 49 50
000
NZUS43 KILX 250510
HWRILX

AREA WEATHER ROUNDUP
NATIONAL WEATHER SERVICE, LINCOLN IL
1200 AM CDT SAT OCT 25 2014


CITY           SKY/WX    TMP DP  RH WIND       PRES   REMARKS
BLOOMINGTON    MOCLDY    59  54  83 S9        29.98F
CHAMPAIGN      CLOUDY    58  54  86 S8        29.99F
DECATUR        CLOUDY    61  52  72 S12       29.98F
FLORA          MOCLDY    57  53  85 SW5       30.03S
GALESBURG      MOCLDY    54  50  85 CALM      29.94F
JACKSONVILLE   MOCLDY    63  53  71 S6        29.96F
LACON          CLOUDY    60  51  70 SW5       29.93F
LAWRENCEVILLE  MOCLDY    51  50  96 S5        30.03F FOG
LITCHFIELD     MOCLDY    55  48  79 S6        29.99F
$$


CITY           SKY/WX    TMP DP  RH WIND       PRES   REMARKS
LINCOLN        CLOUDY    59  53  79 S5        29.95F
MACOMB         MOCLDY    51  49  93 W3        29.97F
MATTOON        CLOUDY    59  52  77 S10       30.00F
MT CARMEL AP   MOCLDY    54  52  94 CALM      30.03F
OLNEY-NOBLE AP MOCLDY    52  50  93 CALM      30.04R
PARIS          MOCLDY    51  51  99 S5        30.02S
PEORIA         MOCLDY    59  50  72 S7        29.94F
PONTIAC        CLOUDY    61  55  79 SW9       29.95F
RANTOUL        CLOUDY    59  55  87 S5        29.97F
ROBINSON       MOCLDY    52  51  95 CALM      30.04S
SPRINGFIELD    CLOUDY    64  50  60 S9        29.97F
TAYLORVILLE    CLOUDY    55  50  82 S7        29.99F
$$

...REGIONAL REPORTS...


CITY           SKY/WX    TMP DP  RH WIND       PRES   REMARKS
CHICAGO O`HARE MOCLDY    60  49  66 SW6       29.92F
KANKAKEE       CLOUDY    58  54  86 SW8       29.96S
MOLINE         FOG       55  54  96 W3        29.94S VSB 1/4
MOUNT VERNON   MOCLDY    55  48  76 SW5       30.03F
PITTSFIELD     PTCLDY    63  57  81 W5        29.97F
QUINCY         MOCLDY    61  57  87 SW6       29.96S
ROCKFORD       CLOUDY    57  50  77 S5        29.95F
$$


CITY           SKY/WX    TMP DP  RH WIND       PRES   REMARKS
BURLINGTON     MOCLDY    53  52  96 CALM      29.95S FOG
CEDAR RAPIDS   FOG       49  49 100 CALM      29.94F VSB 1/4
DES MOINES     FOG       56  54  93 W3        29.97S VSB 1/4
KIRKSVILLE     PTCLDY    60  59  96 CALM      29.99R
OTTUMWA        FOG       55  54  96 W6        29.97R VSB 1/4
ST LOUIS       PTCLDY    65  55  70 SW8       29.99F
$$


CITY           SKY/WX    TMP DP  RH WIND       PRES   REMARKS
TERRE HAUTE    PTCLDY    49  47  93 CALM      30.02F
EVANSVILLE     PTCLDY    53  50  89 W3        30.05F
INDIANAPOLIS   MOCLDY    50  48  93 SW5       30.01F
LAFAYETTE      PTCLDY    53  51  93 S3        29.96F
MADISON        CLOUDY    55  50  83 CALM      29.89F
MILWAUKEE      CLOUDY    56  49  77 SW8       29.90F
$$





USA.gov is the U.S. government's official web portal to all federal, state and local government web resources and services.